Flag for Germany Weather past 2 weeks in Schloss Holte-Stukenbrock, North Rhine-Westphalia, Germany

34 °F

Freezing rain. Low clouds.

Feels Like: 34 °F
Forecast: 33 / 42 °F
Wind: 2 mph from South

Location: Bad Lippspringe

Current Time: Nov 25, 2015 at 3:12:52 AM

Latest Report: Nov 25, 2015 at 2:00 AM

Visibility: 5 mi

Pressure: 29.75 "Hg

Humidity: 98%

Dew point: 33 °F

Location of Schloss Holte-StukenbrockLocation

Historic Weather in Schloss Holte-Stukenbrock — Graph


Schloss Holte-Stukenbrock temperature yesterday

Maximum temperature yesterday: 40 °F (at 1:00 PM)
Minimum temperature yesterday: 34 °F (at 6:00 PM)
Average temperature yesterday: 36 °F

Past Weeks' High & Low Weather Summary

High59 °F (Nov 17, 10:00 PM)99% (Nov 14, 9:00 PM)30.31 "Hg (Nov 14, 9:00 PM)
Low33 °F (Nov 23, 9:00 PM)61% (Nov 24, 1:00 PM)29.38 "Hg (Nov 21, 6:00 AM)
Average48 °F84%29.94 "Hg
* Reported Nov 9 10:00 PM — Nov 24 10:00 PM, Schloss Holte-Stukenbrock, Weather by CustomWeather, © 2015

Note: Actual official high and low records may vary slightly from our data, if they occured in-between our weather recording intervals... More about our weather records


Schloss Holte-Stukenbrock weather history for previous 24 hours

Time TempWeatherWind HumidityBarometerVisibility
10:00 PM
Tue, Nov 24
34 °FLight snow. Overcast.5 mph96%29.83 "Hg3 mi
9:00 PM35 °FLight snow. Overcast.5 mph90%29.85 "Hg6 mi
8:00 PM35 °FLight freezing rain. Overcast.3 mph89%29.87 "Hg8 mi
7:00 PM34 °FLight snow. Overcast.3 mph94%29.89 "Hg9 mi
6:00 PM34 °FLight snow. Overcast.3 mph92%29.91 "Hg2 mi
5:00 PM37 °FDrizzle. Overcast.5 mph72%29.93 "Hg18 mi
4:00 PM37 °FOvercast.5 mph75%29.96 "Hg17 mi
3:00 PM38 °FOvercast.5 mph72%29.98 "Hg18 mi
2:00 PM39 °FOvercast.6 mph70%30.01 "Hg19 mi
1:00 PM40 °FOvercast.5 mph61%30.04 "Hg31 mi
12:00 PM39 °FOvercast.5 mph69%30.07 "Hg19 mi
11:00 AM39 °FOvercast.5 mph68%30.10 "Hg25 mi
10:00 AM37 °FOvercast.3 mph70%30.12 "Hg31 mi
9:00 AM35 °FOvercast.3 mph70%30.15 "Hg25 mi
4:00 AM35 °FOvercast.3 mph78%30.20 "Hg14 mi
3:00 AM35 °FOvercast.3 mph79%30.22 "Hg12 mi
Weather by CustomWeather, © 2015

See weather overviewHow to use our weather pages